Volver al catálogo

STARLINK-34479

ActivoComunicacionesVLEO
NORAD 64365·PAYLOAD·🇺🇸 United States

Lanzado Jun 13, 2025 desde Vandenberg Space Force Base

Loading…

Próximos Pases (próximas 24 horas)

TLE

ActualizadoSource: CelesTrak SupGP

Época: Sep 14, 2026, 23:00 UTC

1 64365C 25126X   26257.95881944  .00069342  00000+0  24123-2 0  2574
2 64365  70.0006 275.5147 0003147 267.6987 169.7342 15.29542810    10

Sigue STARLINK-34479 en tiempo real con AllMySat

Download on the App Store